******** Week 366 almanac for PRN-1 ******** ID: 1 Health: 0 Eccentricity: 0.001691818237 Time of Applicability(s): 147456 Orbital Inclination(rad): 0.957715738 Rate of Right Ascen(r/s): -7.851755628e-09 SQRT(A) (m 1/2): 5153.571289 Right Ascen at Week(rad): 2.385480566 Argument of Perigee(rad): 0.1579007769 Mean Anom(rad): 2.093828724 Af0(s): 0.000235900061 Af1(s/s): -7.275958e-12 week: 366 ******** Week 366 almanac for PRN-2 ******** ID: 2 Health: 0 Eccentricity: 0.01682853699 Time of Applicability(s): 147456 Orbital Inclination(rad): 0.9627790731 Rate of Right Ascen(r/s): -7.828897533e-09 SQRT(A) (m 1/2): 5153.721191 Right Ascen at Week(rad): 2.223120909 Argument of Perigee(rad): -0.7833818179 Mean Anom(rad): -2.676756029 Af0(s): 6.180129394e-05 Af1(s/s): 7.275958e-12 week: 366 ******** Week 366 almanac for PRN-3 ******** ID: 3 Health: 0 Eccentricity: 0.006684780121 Time of Applicability(s): 147456 Orbital Inclination(rad): 0.994105837 Rate of Right Ascen(r/s): -7.668890868e-09 SQRT(A) (m 1/2): 5153.5625 Right Ascen at Week(rad): -2.909564953 Argument of Perigee(rad): 1.208851763 Mean Anom(rad): 0.02748769237 Af0(s): 0.0003986937134 Af1(s/s): -1.455192e-11 week: 366 ******** Week 366 almanac for PRN-4 ******** ID: 4 Health: 0 Eccentricity: 0.003730297089 Time of Applicability(s): 147456 Orbital Inclination(rad): 0.97071263 Rate of Right Ascen(r/s): -8.126052768e-09 SQRT(A) (m 1/2): 5153.659668 Right Ascen at Week(rad): -1.839939174 Argument of Perigee(rad): -2.870121124 Mean Anom(rad): 2.978607196 Af0(s): 4.220576172e-05 Af1(s/s): 0 week: 366 ******** Week 366 almanac for PRN-5 ******** ID: 5 Health: 0 Eccentricity: 0.005494594574 Time of Applicability(s): 147456 Orbital Inclination(rad): 0.980623584 Rate of Right Ascen(r/s): -7.760323248e-09 SQRT(A) (m 1/2): 5153.682617 Right Ascen at Week(rad): -2.969828002 Argument of Perigee(rad): 1.421571006 Mean Anom(rad): -2.63696241 Af0(s): -0.0001831428589 Af1(s/s): 0 week: 366 ******** Week 366 almanac for PRN-6 ******** ID: 6 Health: 0 Eccentricity: 0.003789424896 Time of Applicability(s): 147456 Orbital Inclination(rad): 0.9865138305 Rate of Right Ascen(r/s): -7.577458489e-09 SQRT(A) (m 1/2): 5153.620605 Right Ascen at Week(rad): 2.337180769 Argument of Perigee(rad): -0.5346110302 Mean Anom(rad): 1.312572982 Af0(s): -0.0004823515625 Af1(s/s): 0 week: 366 ******** Week 366 almanac for PRN-7 ******** ID: 7 Health: 0 Eccentricity: 0.02073478699 Time of Applicability(s): 147456 Orbital Inclination(rad): 0.9509746115 Rate of Right Ascen(r/s): -7.840326581e-09 SQRT(A) (m 1/2): 5153.563965 Right Ascen at Week(rad): -0.8312217202 Argument of Perigee(rad): -1.978568943 Mean Anom(rad): 0.4792465326 Af0(s): -0.0001364150513 Af1(s/s): -3.637979e-12 week: 366 ******** Week 366 almanac for PRN-8 ******** ID: 8 Health: 0 Eccentricity: 0.01159906387 Time of Applicability(s): 147456 Orbital Inclination(rad): 0.9428253386 Rate of Right Ascen(r/s): -8.388920861e-09 SQRT(A) (m 1/2): 5153.641602 Right Ascen at Week(rad): 1.214727778 Argument of Perigee(rad): 0.5366730658 Mean Anom(rad): -2.997377114 Af0(s): 0.0003655320435 Af1(s/s): -7.275958e-12 week: 366 ******** Week 366 almanac for PRN-9 ******** ID: 9 Health: 0 Eccentricity: 0.003353118896 Time of Applicability(s): 147456 Orbital Inclination(rad): 0.9649482178 Rate of Right Ascen(r/s): -8.194627053e-09 SQRT(A) (m 1/2): 5153.696289 Right Ascen at Week(rad): -1.904486209 Argument of Perigee(rad): 2.054597615 Mean Anom(rad): -2.400358232 Af0(s): 0.0006006784302 Af1(s/s): -3.637979e-12 week: 366 ******** Week 366 almanac for PRN-10 ******** ID: 10 Health: 0 Eccentricity: 0.01092433929 Time of Applicability(s): 147456 Orbital Inclination(rad): 0.9936384522 Rate of Right Ascen(r/s): -7.634603726e-09 SQRT(A) (m 1/2): 5153.607422 Right Ascen at Week(rad): -2.912071528 Argument of Perigee(rad): -2.257522001 Mean Anom(rad): -0.9646971487 Af0(s): -0.0004657707275 Af1(s/s): 0 week: 366 ******** Week 366 almanac for PRN-11 ******** ID: 11 Health: 0 Eccentricity: 0.002225399017 Time of Applicability(s): 147456 Orbital Inclination(rad): 0.9634082449 Rate of Right Ascen(r/s): -7.817468486e-09 SQRT(A) (m 1/2): 5153.549805 Right Ascen at Week(rad): 2.355046253 Argument of Perigee(rad): -2.328019578 Mean Anom(rad): 2.475268626 Af0(s): -0.0002961940063 Af1(s/s): 1.455192e-11 week: 366 ******** Week 366 almanac for PRN-12 ******** ID: 12 Health: 0 Eccentricity: 0.008912086487 Time of Applicability(s): 147456 Orbital Inclination(rad): 0.9594115059 Rate of Right Ascen(r/s): -7.954617056e-09 SQRT(A) (m 1/2): 5153.69873 Right Ascen at Week(rad): 0.2864757808 Argument of Perigee(rad): 1.573250097 Mean Anom(rad): -0.2240267339 Af0(s): -0.0004808442139 Af1(s/s): 0 week: 366 ******** Week 366 almanac for PRN-13 ******** ID: 13 Health: 0 Eccentricity: 0.01011800766 Time of Applicability(s): 147456 Orbital Inclination(rad): 0.9762313655 Rate of Right Ascen(r/s): -8.046049436e-09 SQRT(A) (m 1/2): 5153.618164 Right Ascen at Week(rad): -1.728786986 Argument of Perigee(rad): 0.9945715743 Mean Anom(rad): 3.058078337 Af0(s): 0.0005373697876 Af1(s/s): 0 week: 366 ******** Week 366 almanac for PRN-14 ******** ID: 14 Health: 0 Eccentricity: 0.006951808929 Time of Applicability(s): 147456 Orbital Inclination(rad): 0.9427654175 Rate of Right Ascen(r/s): -8.068907531e-09 SQRT(A) (m 1/2): 5153.603027 Right Ascen at Week(rad): 0.2311985434 Argument of Perigee(rad): -2.72960721 Mean Anom(rad): -0.3561846466 Af0(s): 0.0005871122925 Af1(s/s): 0 week: 366 ******** Week 366 almanac for PRN-15 ******** ID: 15 Health: 0 Eccentricity: 0.01666021347 Time of Applicability(s): 147456 Orbital Inclination(rad): 0.9429751414 Rate of Right Ascen(r/s): -8.446066098e-09 SQRT(A) (m 1/2): 5153.651855 Right Ascen at Week(rad): -2.049580344 Argument of Perigee(rad): 1.509740821 Mean Anom(rad): 2.290720551 Af0(s): 0.0003180505615 Af1(s/s): 3.637979e-12 week: 366 ******** Week 366 almanac for PRN-16 ******** ID: 16 Health: 0 Eccentricity: 0.01500368118 Time of Applicability(s): 147456 Orbital Inclination(rad): 0.9585246732 Rate of Right Ascen(r/s): -7.954617056e-09 SQRT(A) (m 1/2): 5153.615723 Right Ascen at Week(rad): 0.3033754105 Argument of Perigee(rad): 0.9330984926 Mean Anom(rad): -1.951999542 Af0(s): 0.000192940625 Af1(s/s): 7.275958e-12 week: 366 ******** Week 366 almanac for PRN-17 ******** ID: 17 Health: 0 Eccentricity: 0.01260089874 Time of Applicability(s): 147456 Orbital Inclination(rad): 0.9584287994 Rate of Right Ascen(r/s): -8.217485148e-09 SQRT(A) (m 1/2): 5153.556641 Right Ascen at Week(rad): 1.320122295 Argument of Perigee(rad): -1.114691333 Mean Anom(rad): -3.035696299 Af0(s): -8.817989502e-05 Af1(s/s): -7.275958e-12 week: 366 ******** Week 366 almanac for PRN-18 ******** ID: 18 Health: 0 Eccentricity: 0.005854606628 Time of Applicability(s): 147456 Orbital Inclination(rad): 0.9714796203 Rate of Right Ascen(r/s): -7.703178011e-09 SQRT(A) (m 1/2): 5153.588379 Right Ascen at Week(rad): 2.331552303 Argument of Perigee(rad): -2.871375722 Mean Anom(rad): 1.264295281 Af0(s): -0.0002984550293 Af1(s/s): 1.091394e-11 week: 366 ******** Week 366 almanac for PRN-19 ******** ID: 19 Health: 0 Eccentricity: 0.01132297516 Time of Applicability(s): 147456 Orbital Inclination(rad): 0.9575719273 Rate of Right Ascen(r/s): -8.206056101e-09 SQRT(A) (m 1/2): 5153.670898 Right Ascen at Week(rad): 1.363999913 Argument of Perigee(rad): 2.952032177 Mean Anom(rad): -1.270221855 Af0(s): 0.0005509359253 Af1(s/s): 0 week: 366 ******** Week 366 almanac for PRN-20 ******** ID: 20 Health: 0 Eccentricity: 0.0022149086 Time of Applicability(s): 147456 Orbital Inclination(rad): 0.9603402833 Rate of Right Ascen(r/s): -8.251772291e-09 SQRT(A) (m 1/2): 5153.702148 Right Ascen at Week(rad): -1.899085444 Argument of Perigee(rad): -1.92315913 Mean Anom(rad): -0.30454949 Af0(s): 8.365784912e-05 Af1(s/s): 1.818989e-11 week: 366 ******** Week 366 almanac for PRN-21 ******** ID: 21 Health: 0 Eccentricity: 0.0008325576782 Time of Applicability(s): 147456 Orbital Inclination(rad): 0.9635101108 Rate of Right Ascen(r/s): -7.954617056e-09 SQRT(A) (m 1/2): 5153.737793 Right Ascen at Week(rad): -2.90457989 Argument of Perigee(rad): -0.1902035061 Mean Anom(rad): -0.6459778107 Af0(s): 0.0003270946533 Af1(s/s): 0 week: 366 ******** Week 366 almanac for PRN-22 ******** ID: 22 Health: 0 Eccentricity: 0.01201152802 Time of Applicability(s): 147456 Orbital Inclination(rad): 0.9579733989 Rate of Right Ascen(r/s): -7.954617056e-09 SQRT(A) (m 1/2): 5153.569824 Right Ascen at Week(rad): 0.3067366111 Argument of Perigee(rad): -0.9932518116 Mean Anom(rad): -2.387581551 Af0(s): -1.507348633e-05 Af1(s/s): 7.275958e-12 week: 366 ******** Week 366 almanac for PRN-23 ******** ID: 23 Health: 0 Eccentricity: 0.006103515625 Time of Applicability(s): 147456 Orbital Inclination(rad): 0.9886110699 Rate of Right Ascen(r/s): -7.691748963e-09 SQRT(A) (m 1/2): 5153.666504 Right Ascen at Week(rad): -2.944342425 Argument of Perigee(rad): -2.741752848 Mean Anom(rad): 0.1034856546 Af0(s): 0.000502700769 Af1(s/s): 3.637979e-12 week: 366 ******** Week 366 almanac for PRN-24 ******** ID: 24 Health: 0 Eccentricity: 0.01798963547 Time of Applicability(s): 147456 Orbital Inclination(rad): 0.9349277344 Rate of Right Ascen(r/s): -8.080336578e-09 SQRT(A) (m 1/2): 5153.592285 Right Ascen at Week(rad): -0.9404826477 Argument of Perigee(rad): 1.141300058 Mean Anom(rad): 1.460842562 Af0(s): -3.014697266e-05 Af1(s/s): 1.818989e-11 week: 366 ******** Week 366 almanac for PRN-25 ******** ID: 25 Health: 0 Eccentricity: 0.01288366318 Time of Applicability(s): 147456 Orbital Inclination(rad): 0.947804784 Rate of Right Ascen(r/s): -8.034620388e-09 SQRT(A) (m 1/2): 5153.654785 Right Ascen at Week(rad): 0.192222848 Argument of Perigee(rad): 1.160519009 Mean Anom(rad): -0.3342359132 Af0(s): 0.0003399071167 Af1(s/s): -3.637979e-12 week: 366 ******** Week 366 almanac for PRN-26 ******** ID: 26 Health: 0 Eccentricity: 0.01102161407 Time of Applicability(s): 147456 Orbital Inclination(rad): 0.9285820873 Rate of Right Ascen(r/s): -8.171768958e-09 SQRT(A) (m 1/2): 5153.684082 Right Ascen at Week(rad): 0.1169443137 Argument of Perigee(rad): 0.7128602719 Mean Anom(rad): -1.157740542 Af0(s): -0.0002788594971 Af1(s/s): -3.637979e-12 week: 366 ******** Week 366 almanac for PRN-27 ******** ID: 27 Health: 0 Eccentricity: 0.01437759399 Time of Applicability(s): 147456 Orbital Inclination(rad): 0.951903389 Rate of Right Ascen(r/s): -8.274630386e-09 SQRT(A) (m 1/2): 5153.608398 Right Ascen at Week(rad): 1.247132748 Argument of Perigee(rad): 0.8929850448 Mean Anom(rad): -2.887758532 Af0(s): -8.365784912e-05 Af1(s/s): -1.455192e-11 week: 366 ******** Week 366 almanac for PRN-28 ******** ID: 28 Health: 0 Eccentricity: 0.0003967285156 Time of Applicability(s): 147456 Orbital Inclination(rad): 0.9618802562 Rate of Right Ascen(r/s): -7.783181343e-09 SQRT(A) (m 1/2): 5153.522461 Right Ascen at Week(rad): -0.8564998211 Argument of Perigee(rad): -0.3693642979 Mean Anom(rad): 1.169075371 Af0(s): -0.0004393921265 Af1(s/s): 1.091394e-11 week: 366 ******** Week 366 almanac for PRN-29 ******** ID: 29 Health: 0 Eccentricity: 0.003491878509 Time of Applicability(s): 147456 Orbital Inclination(rad): 0.9610833052 Rate of Right Ascen(r/s): -8.194627053e-09 SQRT(A) (m 1/2): 5153.678223 Right Ascen at Week(rad): 1.336972864 Argument of Perigee(rad): 2.758590309 Mean Anom(rad): -3.053976361 Af0(s): -0.000269061731 Af1(s/s): 7.275958e-12 week: 366 ******** Week 366 almanac for PRN-30 ******** ID: 30 Health: 0 Eccentricity: 0.008199214935 Time of Applicability(s): 147456 Orbital Inclination(rad): 0.936240007 Rate of Right Ascen(r/s): -8.023191341e-09 SQRT(A) (m 1/2): 5153.686035 Right Ascen at Week(rad): -0.840829698 Argument of Perigee(rad): -2.291111911 Mean Anom(rad): 0.2577582074 Af0(s): 0.0001469664917 Af1(s/s): 1.455192e-11 week: 366 ******** Week 366 almanac for PRN-31 ******** ID: 31 Health: 0 Eccentricity: 0.01081514359 Time of Applicability(s): 147456 Orbital Inclination(rad): 0.9547436503 Rate of Right Ascen(r/s): -7.840326581e-09 SQRT(A) (m 1/2): 5153.541504 Right Ascen at Week(rad): -0.8068225873 Argument of Perigee(rad): 0.943800031 Mean Anom(rad): -0.6018650023 Af0(s): -0.0001228489136 Af1(s/s): 3.637979e-12 week: 366 ******** Week 366 almanac for PRN-32 ******** ID: 32 Health: 0 Eccentricity: 0.009396076202 Time of Applicability(s): 147456 Orbital Inclination(rad): 0.9679622503 Rate of Right Ascen(r/s): -8.137481816e-09 SQRT(A) (m 1/2): 5153.692871 Right Ascen at Week(rad): -1.887339031 Argument of Perigee(rad): -1.982854801 Mean Anom(rad): -2.338075092 Af0(s): 7.536743164e-07 Af1(s/s): 1.818989e-11 week: 366